Change the Weather History Date:

Wednesday, November 16, 2011

  Actual Average Record
Temperature  
Mean Temperature 25 °F 33 °F  
Max Temperature 38 °F 45 °F 63 °F (1976)
Min Temperature 12 °F 22 °F -2 °F (2014)
Degree Days  
Heating Degree Days 40 32  
Month to date heating degree days 554 461  
Since 1 July heating degree days 1390 1511  
Cooling Degree Days 0 0  
Month to date cooling degree days 0 0  
Year to date cooling degree days 144 215  
Moisture  
Dew Point 20 °F    
Average Humidity 71    
Maximum Humidity 88    
Minimum Humidity 54    
Precipitation  
Precipitation T in 0.04 in 0.40 in (1981)
Month to date precipitation 0.33 0.58  
Year to date precipitation 9.97 8.78  
Sea Level Pressure  
Sea Level Pressure 30.23 in    
Wind  
Wind Speed 1 mph (East)    
Max Wind Speed 8 mph    
Max Gust Speed 12 mph    
Visibility 10 miles    
Events      
T = Trace of Precipitation, MM = Missing Value Source: NWS Daily Summary

Daily Weather History Graph

Daily Weather History Graph

Search for Another Location

Airport or City:

Trip Planner

Search our weather history database for the weather conditions in past years. The results will help you decide how hot, cold, wet, or windy it might be!

Date:

Astronomy

Nov. 16, 2011 Rise Set
Actual Time 6:50 AM PST 4:29 PM PST
Civil Twilight 6:19 AM PST 5:00 PM PST
Nautical Twilight 5:45 AM PST 5:35 PM PST
Astronomical Twilight 5:11 AM PST 6:09 PM PST
Moon 9:50 PM PST (11/16) 11:28 AM PST (11/16)
Length of Visible Light 10h 41m
Length of Day
9h 39m
Waning Gibbous, 69% of the Moon is Illuminated
Nov 16
Waning Gibbous
Nov 18
Last Quarter
Nov 24
New
Dec 2
First Quarter
Dec 10
Full

Hourly Weather History & Observations

Time (PST) Temp. Windchill Dew Point Humidity Pressure Visibility Wind Dir Wind Speed Gust Speed Precip Events Conditions
12:53 AM 14.0 °F - 10.0 °F 84% 30.31 in 10.0 mi Calm Calm - N/A   Clear
1:53 AM 12.9 °F - 9.0 °F 84% 30.31 in 10.0 mi Calm Calm - N/A   Clear
2:53 AM 16.0 °F 6.3 °F 12.0 °F 84% 30.30 in 9.0 mi West 6.9 mph - N/A   Clear
3:53 AM 14.0 °F 6.5 °F 10.9 °F 88% 30.31 in 9.0 mi WSW 4.6 mph - N/A   Clear
4:53 AM 15.1 °F - 10.9 °F 84% 30.33 in 10.0 mi Calm Calm - N/A   Overcast
5:53 AM 19.0 °F - 15.1 °F 85% 30.34 in 9.0 mi Calm Calm - N/A   Overcast
6:53 AM 21.0 °F - 18.0 °F 88% 30.34 in 10.0 mi Calm Calm - N/A   Overcast
7:53 AM 24.1 °F - 18.0 °F 77% 30.35 in 10.0 mi Calm Calm - N/A   Overcast
8:53 AM 26.1 °F - 21.0 °F 81% 30.34 in 10.0 mi Calm Calm - N/A   Overcast
9:19 AM 28.4 °F - 21.2 °F 74% 30.23 in 10.0 mi Calm Calm - N/A   Overcast
9:53 AM 28.9 °F - 21.9 °F 75% 30.33 in 10.0 mi Calm Calm - N/A   Overcast
10:13 AM 30.2 °F - 21.2 °F 69% 30.22 in 10.0 mi Calm Calm - N/A   Overcast
10:45 AM 32.0 °F 28.7 °F 21.2 °F 64% 30.20 in 10.0 mi ENE 3.5 mph - N/A   Overcast
10:53 AM 33.1 °F 28.7 °F 21.0 °F 61% 30.30 in 10.0 mi ENE 4.6 mph - N/A   Overcast
11:40 AM 35.6 °F 31.7 °F 21.2 °F 56% 30.17 in 10.0 mi ENE 4.6 mph - N/A   Overcast
11:53 AM 35.1 °F 31.0 °F 21.0 °F 57% 30.26 in 10.0 mi East 4.6 mph - N/A   Overcast
12:53 PM 36.0 °F - 21.9 °F 57% 30.23 in 10.0 mi Calm Calm - N/A   Overcast
1:53 PM 37.0 °F 34.5 °F 23.0 °F 57% 30.20 in 10.0 mi ENE 3.5 mph - N/A   Overcast
2:53 PM 37.9 °F - 24.1 °F 57% 30.20 in 10.0 mi Calm Calm - N/A   Overcast
3:53 PM 36.0 °F - 24.1 °F 62% 30.21 in 10.0 mi Calm Calm - N/A   Overcast
4:53 PM 33.1 °F 30.0 °F 24.1 °F 70% 30.19 in 10.0 mi ESE 3.5 mph - N/A   Overcast
5:53 PM 32.0 °F - 24.1 °F 73% 30.19 in 10.0 mi Calm Calm - N/A   Overcast
6:53 PM 30.0 °F 26.5 °F 24.1 °F 79% 30.17 in 10.0 mi WSW 3.5 mph - N/A   Overcast
7:53 PM 30.0 °F 26.5 °F 24.1 °F 79% 30.16 in 10.0 mi South 3.5 mph - N/A   Overcast
8:53 PM 30.9 °F - 25.0 °F 79% 30.13 in 10.0 mi Calm Calm - N/A   Overcast
9:53 PM 30.9 °F - 25.0 °F 79% 30.12 in 10.0 mi Calm Calm - N/A   Overcast
10:53 PM 32.0 °F - 26.1 °F 79% 30.08 in 10.0 mi Calm Calm - N/A   Overcast
11:53 PM 30.9 °F - 27.0 °F 85% 30.05 in 10.0 mi Calm Calm - 0.00 in   Overcast